Palm Springs, CA

11:56 PM PDT on March 23, 2017 (GMT -0700)
Palm Springs International

Weather History for KPSP - July, 2006

Change the Weather History Date:

Monday, July 31, 2006

  Actual Average Record
Temperature  
Mean Temperature 88 °F 93 °F  
Max Temperature 97 °F 107 °F 122 °F (1957)
Min Temperature 79 °F 78 °F 65 °F (1936)
Degree Days  
Heating Degree Days 0 0  
Month to date heating degree days 0 0  
Since 1 June heating degree days 0  
Since 1 July heating degree days 0 0  
Cooling Degree Days 23 28  
Month to date cooling degree days 1006 846  
Year to date cooling degree days 2593 2252  
Since 1 June cooling degree days 1493  
Growing Degree Days 38 (Base 50)    
Moisture  
Dew Point 59 °F    
Average Humidity 43    
Maximum Humidity 58    
Minimum Humidity 27    
Precipitation  
Precipitation 0.00 in 0.02 in 1.68 in (1922)
Month to date precipitation 0.34 0.25  
Year to date precipitation 1.65 3.19  
Since 1 July precipitation 0.34  
Snow  
Snow 0.00 in - - ()
Month to date snowfall 0.0  
Year to date snowfall 0.0  
Snow Depth 0.00 in    
Sea Level Pressure  
Sea Level Pressure 29.67 in    
Wind  
Wind Speed 14 mph (NW)    
Max Wind Speed 29 mph    
Max Gust Speed 36 mph    
Visibility 10 miles    
Events      
T = Trace of Precipitation, MM = Missing Value Source: NWS Daily Summary

Daily Weather History Graph

Daily Weather History Graph

Search for Another Location

Airport or City:

Trip Planner

Search our weather history database for the weather conditions in past years. The results will help you decide how hot, cold, wet, or windy it might be!

Date:

Astronomy

Jul. 31, 2006 Rise Set
Actual Time 5:57 AM PDT 7:47 PM PDT
Civil Twilight 5:29 AM PDT 8:14 PM PDT
Nautical Twilight 4:56 AM PDT 8:47 PM PDT
Astronomical Twilight 4:21 AM PDT 9:22 PM PDT
Moon 11:50 AM PDT (7/31) 11:06 PM PDT (7/31)
Length of Visible Light 14h 44m
Length of Day
13h 50m
Waxing Crescent, 35% of the Moon is Illuminated
Jul 31
Waxing Crescent
Aug 2
First Quarter
Aug 9
Full
Aug 15
Last Quarter
Aug 23
New

Hourly Weather History & Observations

Time (PDT) Temp. Heat Index Dew Point Humidity Pressure Visibility Wind Dir Wind Speed Gust Speed Precip Events Conditions
12:53 AM 84.0 °F 84.4 °F 61.0 °F 46% 29.68 in 10.0 mi NW 15.0 mph 21.9 mph N/A   Clear
1:53 AM 84.0 °F 84.0 °F 60.1 °F 44% 29.68 in 10.0 mi NW 9.2 mph - N/A   Clear
2:53 AM 82.0 °F 83.0 °F 62.1 °F 51% 29.68 in 10.0 mi Calm Calm - N/A   Clear
3:53 AM 81.0 °F 81.9 °F 62.1 °F 52% 29.68 in 10.0 mi ESE 3.5 mph - N/A   Clear
4:53 AM 79.0 °F - 62.1 °F 56% 29.69 in 10.0 mi SSE 4.6 mph - N/A   Clear
5:53 AM 80.1 °F 81.2 °F 62.1 °F 54% 29.70 in 10.0 mi ESE 3.5 mph - N/A   Clear
6:53 AM 80.1 °F 81.2 °F 62.1 °F 54% 29.71 in 10.0 mi SSE 5.8 mph - N/A   Clear
7:53 AM 82.9 °F 83.3 °F 61.0 °F 47% 29.72 in 10.0 mi Variable 3.5 mph - N/A   Clear
8:53 AM 87.1 °F 87.0 °F 61.0 °F 41% 29.72 in 10.0 mi Calm Calm - N/A   Clear
9:53 AM 89.1 °F 88.8 °F 60.1 °F 38% 29.71 in 10.0 mi Variable 3.5 mph - N/A   Partly Cloudy
10:53 AM 91.9 °F 91.2 °F 59.0 °F 33% 29.71 in 10.0 mi NW 16.1 mph 26.5 mph N/A   Clear
11:53 AM 93.9 °F 93.2 °F 59.0 °F 31% 29.70 in 10.0 mi NNW 16.1 mph 25.3 mph N/A   Partly Cloudy
12:53 PM 96.1 °F 95.6 °F 59.0 °F 29% 29.69 in 10.0 mi NNW 25.3 mph 31.1 mph N/A   Partly Cloudy
1:53 PM 96.1 °F 95.6 °F 59.0 °F 29% 29.66 in 10.0 mi NW 23.0 mph 31.1 mph N/A   Partly Cloudy
2:53 PM 97.0 °F 96.5 °F 59.0 °F 28% 29.65 in 10.0 mi NNW 24.2 mph 28.8 mph N/A   Partly Cloudy
3:53 PM 96.1 °F 95.2 °F 57.9 °F 28% 29.63 in 10.0 mi NW 18.4 mph 28.8 mph N/A   Partly Cloudy
4:53 PM 96.1 °F 94.8 °F 57.0 °F 27% 29.63 in 10.0 mi NW 15.0 mph 27.6 mph N/A   Clear
5:53 PM 93.0 °F 91.4 °F 55.9 °F 29% 29.61 in 10.0 mi NW 26.5 mph 33.4 mph N/A   Clear
6:53 PM 91.9 °F 90.3 °F 55.9 °F 30% 29.61 in 10.0 mi NW 17.3 mph 29.9 mph N/A   Clear
7:53 PM 89.1 °F 87.3 °F 55.9 °F 32% 29.62 in 10.0 mi NW 19.6 mph - N/A   Clear
8:53 PM 87.1 °F 85.3 °F 55.0 °F 33% 29.64 in 10.0 mi NW 21.9 mph 26.5 mph N/A   Clear
9:53 PM 84.9 °F 83.7 °F 55.9 °F 37% 29.66 in 10.0 mi NW 19.6 mph 26.5 mph N/A   Clear
10:53 PM 84.0 °F 83.3 °F 57.0 °F 40% 29.67 in 10.0 mi NNW 19.6 mph 24.2 mph N/A   Clear
11:53 PM 82.9 °F 82.4 °F 57.0 °F 41% 29.68 in 10.0 mi NW 12.7 mph 19.6 mph N/A   Clear